Time,TemperatureF,DewpointF,PressureIn,WindDirection,WindDirectionDegrees,WindSpeedMPH,WindSpeedGustMPH,Humidity,HourlyPrecipIn,Conditions,Clouds,dailyrainin,SoftwareType,DateUTC
2013-02-03 00:02:00,48.5,44.2,30.23,West,278,1.0,0.0,85,0.00,,,0.00,WeatherTracker,2013-02-03 08:02:00,
2013-02-03 00:07:00,48.5,44.2,30.23,WSW,249,0.0,0.0,85,0.00,,,0.00,WeatherTracker,2013-02-03 08:07:00,
2013-02-03 00:12:00,48.5,44.2,30.23,SSE,162,0.0,0.0,85,0.00,,,0.00,WeatherTracker,2013-02-03 08:12:00,
2013-02-03 00:17:00,48.4,44.1,30.23,ESE,103,0.0,0.0,85,0.00,,,0.00,WeatherTracker,2013-02-03 08:17:00,
2013-02-03 00:23:00,48.4,44.1,30.23,East,91,0.0,0.0,85,0.00,,,0.00,WeatherTracker,2013-02-03 08:23:00,
2013-02-03 00:28:00,48.4,43.8,30.23,SSW,211,0.0,0.0,84,0.00,,,0.00,WeatherTracker,2013-02-03 08:28:00,
2013-02-03 00:33:00,48.4,43.8,30.23,SW,217,0.0,0.0,84,0.00,,,0.00,WeatherTracker,2013-02-03 08:33:00,
2013-02-03 00:38:00,48.4,43.8,30.23,WSW,242,0.0,0.0,84,0.00,,,0.00,WeatherTracker,2013-02-03 08:38:00,
2013-02-03 00:43:00,48.3,43.7,30.23,NW,304,0.0,0.0,84,0.00,,,0.00,WeatherTracker,2013-02-03 08:43:00,
2013-02-03 00:48:00,48.3,43.7,30.23,West,281,0.0,0.0,84,0.00,,,0.00,WeatherTracker,2013-02-03 08:48:00,
2013-02-03 00:53:00,48.3,43.7,30.22,SE,126,0.0,0.0,84,0.00,,,0.00,WeatherTracker,2013-02-03 08:53:00,
2013-02-03 00:58:00,48.2,43.6,30.22,SE,146,0.0,0.0,84,0.00,,,0.00,WeatherTracker,2013-02-03 08:58:00,
2013-02-03 01:03:00,48.1,43.8,30.22,SE,146,0.0,0.0,85,0.00,,,0.00,WeatherTracker,2013-02-03 09:03:00,
2013-02-03 01:08:00,48.1,43.8,30.22,WSW,240,2.0,0.0,85,0.00,,,0.00,WeatherTracker,2013-02-03 09:08:00,
2013-02-03 01:13:00,48.0,43.7,30.22,WSW,258,1.0,0.0,85,0.00,,,0.00,WeatherTracker,2013-02-03 09:13:00,
2013-02-03 01:18:00,48.1,44.4,30.22,West,281,1.0,0.0,87,0.00,,,0.00,WeatherTracker,2013-02-03 09:18:00,
2013-02-03 01:23:00,48.1,44.7,30.22,WSW,242,1.0,0.0,88,0.00,,,0.00,WeatherTracker,2013-02-03 09:23:00,
2013-02-03 01:28:00,48.0,44.6,30.22,West,278,1.0,0.0,88,0.00,,,0.00,WeatherTracker,2013-02-03 09:28:00,
2013-02-03 01:33:00,48.0,44.3,30.22,WNW,293,2.0,0.0,87,0.00,,,0.00,WeatherTracker,2013-02-03 09:33:00,
2013-02-03 01:38:00,48.1,44.1,30.22,WNW,284,2.0,0.0,86,0.00,,,0.00,WeatherTracker,2013-02-03 09:38:00,
2013-02-03 01:43:00,48.1,43.8,30.23,West,274,6.0,0.0,85,0.00,,,0.00,WeatherTracker,2013-02-03 09:43:00,
2013-02-03 01:48:00,48.1,43.8,30.22,WNW,284,2.0,0.0,85,0.00,,,0.00,WeatherTracker,2013-02-03 09:48:00,
2013-02-03 01:53:00,48.2,43.6,30.22,WNW,287,3.0,0.0,84,0.00,,,0.00,WeatherTracker,2013-02-03 09:53:00,
2013-02-03 01:58:00,48.1,43.5,30.23,West,278,2.0,0.0,84,0.00,,,0.00,WeatherTracker,2013-02-03 09:58:00,
2013-02-03 02:03:00,48.1,43.8,30.23,WNW,285,3.0,0.0,85,0.00,,,0.00,WeatherTracker,2013-02-03 10:03:00,
2013-02-03 02:08:00,48.1,43.5,30.23,WSW,250,0.0,0.0,84,0.00,,,0.00,WeatherTracker,2013-02-03 10:08:00,
2013-02-03 02:13:00,48.1,43.5,30.23,West,272,9.0,0.0,84,0.00,,,0.00,WeatherTracker,2013-02-03 10:13:00,
2013-02-03 02:18:00,48.2,43.6,30.23,WSW,253,3.0,0.0,84,0.00,,,0.00,WeatherTracker,2013-02-03 10:18:00,
2013-02-03 02:23:00,48.1,43.5,30.23,NW,326,3.0,0.0,84,0.00,,,0.00,WeatherTracker,2013-02-03 10:23:00,
2013-02-03 02:28:00,48.1,43.5,30.23,WNW,285,4.0,0.0,84,0.00,,,0.00,WeatherTracker,2013-02-03 10:28:00,
2013-02-03 02:33:00,48.1,43.5,30.23,West,281,4.0,0.0,84,0.00,,,0.00,WeatherTracker,2013-02-03 10:33:00,
2013-02-03 02:38:00,48.1,43.2,30.23,West,273,4.0,0.0,83,0.00,,,0.00,WeatherTracker,2013-02-03 10:38:00,
2013-02-03 02:43:00,48.1,43.2,30.23,West,279,6.0,0.0,83,0.00,,,0.00,WeatherTracker,2013-02-03 10:43:00,
2013-02-03 02:48:00,48.1,43.2,30.23,NW,312,4.0,0.0,83,0.00,,,0.00,WeatherTracker,2013-02-03 10:48:00,
2013-02-03 02:54:00,48.2,43.3,30.23,West,277,3.0,0.0,83,0.00,,,0.00,WeatherTracker,2013-02-03 10:54:00,
2013-02-03 02:59:00,48.3,43.1,30.23,NW,322,2.0,0.0,82,0.00,,,0.00,WeatherTracker,2013-02-03 10:59:00,
2013-02-03 03:04:00,48.4,43.2,30.23,WNW,283,3.0,0.0,82,0.00,,,0.00,WeatherTracker,2013-02-03 11:04:00,
2013-02-03 03:09:00,48.5,42.9,30.23,WNW,283,2.0,0.0,81,0.00,,,0.00,WeatherTracker,2013-02-03 11:09:00,
2013-02-03 03:14:00,48.7,42.8,30.23,WNW,283,4.0,0.0,80,0.00,,,0.00,WeatherTracker,2013-02-03 11:14:00,
2013-02-03 03:19:00,48.9,42.7,30.23,WNW,284,7.0,0.0,79,0.00,,,0.00,WeatherTracker,2013-02-03 11:19:00,
2013-02-03 03:24:00,48.9,42.7,30.23,SW,236,9.0,0.0,79,0.00,,,0.00,WeatherTracker,2013-02-03 11:24:00,
2013-02-03 03:29:00,48.9,42.3,30.23,WNW,292,7.0,0.0,78,0.00,,,0.00,WeatherTracker,2013-02-03 11:29:00,
2013-02-03 03:34:00,48.9,42.3,30.23,West,263,9.0,0.0,78,0.00,,,0.00,WeatherTracker,2013-02-03 11:34:00,
2013-02-03 03:39:00,48.9,42.3,30.23,West,269,6.0,0.0,78,0.00,,,0.00,WeatherTracker,2013-02-03 11:39:00,
2013-02-03 03:44:00,48.8,42.2,30.22,WSW,256,4.0,0.0,78,0.00,,,0.00,WeatherTracker,2013-02-03 11:44:00,
2013-02-03 03:49:00,48.7,42.5,30.22,WNW,300,2.0,0.0,79,0.00,,,0.00,WeatherTracker,2013-02-03 11:49:00,
2013-02-03 03:54:00,48.5,42.3,30.22,WSW,251,2.0,0.0,79,0.00,,,0.00,WeatherTracker,2013-02-03 11:54:00,
2013-02-03 03:59:00,48.4,42.2,30.22,West,270,3.0,0.0,79,0.00,,,0.00,WeatherTracker,2013-02-03 11:59:00,
2013-02-03 04:04:00,48.3,42.4,30.22,WSW,245,6.0,0.0,80,0.00,,,0.00,WeatherTracker,2013-02-03 12:04:00,
2013-02-03 04:09:00,48.3,42.4,30.22,WSW,250,2.0,0.0,80,0.00,,,0.00,WeatherTracker,2013-02-03 12:09:00,
2013-02-03 04:14:00,48.2,42.3,30.22,WSW,257,2.0,0.0,80,0.00,,,0.00,WeatherTracker,2013-02-03 12:14:00,
2013-02-03 04:19:00,48.3,42.4,30.21,WSW,249,4.0,0.0,80,0.00,,,0.00,WeatherTracker,2013-02-03 12:19:00,
2013-02-03 04:24:00,48.3,42.4,30.21,West,263,2.0,0.0,80,0.00,,,0.00,WeatherTracker,2013-02-03 12:24:00,
2013-02-03 04:29:00,48.3,42.4,30.21,WSW,253,4.0,0.0,80,0.00,,,0.00,WeatherTracker,2013-02-03 12:29:00,
2013-02-03 04:34:00,48.3,42.4,30.21,West,269,3.0,0.0,80,0.00,,,0.00,WeatherTracker,2013-02-03 12:34:00,
2013-02-03 04:39:00,48.2,42.6,30.21,West,281,5.0,0.0,81,0.00,,,0.00,WeatherTracker,2013-02-03 12:39:00,
2013-02-03 04:44:00,48.2,42.6,30.22,WSW,251,5.0,0.0,81,0.00,,,0.00,WeatherTracker,2013-02-03 12:44:00,
2013-02-03 04:49:00,48.1,42.5,30.21,WNW,286,7.0,0.0,81,0.00,,,0.00,WeatherTracker,2013-02-03 12:49:00,
2013-02-03 04:55:00,48.1,42.5,30.21,WNW,292,9.0,0.0,81,0.00,,,0.00,WeatherTracker,2013-02-03 12:55:00,
2013-02-03 05:00:00,48.2,42.6,30.21,West,281,2.0,0.0,81,0.00,,,0.00,WeatherTracker,2013-02-03 13:00:00,
2013-02-03 05:05:00,48.3,42.7,30.21,WNW,291,7.0,0.0,81,0.00,,,0.00,WeatherTracker,2013-02-03 13:05:00,
2013-02-03 05:10:00,48.3,42.7,30.21,SSW,205,5.0,0.0,81,0.00,,,0.00,WeatherTracker,2013-02-03 13:10:00,
2013-02-03 05:15:00,48.4,42.5,30.21,WNW,283,8.0,0.0,80,0.00,,,0.00,WeatherTracker,2013-02-03 13:15:00,
2013-02-03 05:20:00,48.4,42.5,30.21,WSW,239,3.0,0.0,80,0.00,,,0.00,WeatherTracker,2013-02-03 13:20:00,
2013-02-03 05:25:00,48.3,42.4,30.21,West,271,6.0,0.0,80,0.00,,,0.00,WeatherTracker,2013-02-03 13:25:00,
2013-02-03 05:30:00,48.3,42.4,30.21,West,276,2.0,0.0,80,0.00,,,0.00,WeatherTracker,2013-02-03 13:30:00,
2013-02-03 05:35:00,48.2,42.3,30.21,SW,236,3.0,0.0,80,0.00,,,0.00,WeatherTracker,2013-02-03 13:35:00,
2013-02-03 05:40:00,48.2,42.3,30.21,West,273,2.0,0.0,80,0.00,,,0.00,WeatherTracker,2013-02-03 13:40:00,
2013-02-03 05:45:00,48.2,42.3,30.21,WSW,240,3.0,0.0,80,0.00,,,0.00,WeatherTracker,2013-02-03 13:45:00,
2013-02-03 05:50:00,48.2,42.3,30.21,SW,229,1.0,0.0,80,0.00,,,0.00,WeatherTracker,2013-02-03 13:50:00,
2013-02-03 05:55:00,48.2,42.3,30.21,WSW,250,5.0,0.0,80,0.00,,,0.00,WeatherTracker,2013-02-03 13:55:00,
2013-02-03 06:00:00,48.3,42.1,30.22,WSW,240,2.0,0.0,79,0.00,,,0.00,WeatherTracker,2013-02-03 14:00:00,
2013-02-03 06:05:00,48.2,42.3,30.22,WSW,256,1.0,0.0,80,0.00,,,0.00,WeatherTracker,2013-02-03 14:05:00,
2013-02-03 06:10:00,48.3,42.1,30.22,West,279,1.0,0.0,79,0.00,,,0.00,WeatherTracker,2013-02-03 14:10:00,
2013-02-03 06:15:00,48.2,42.0,30.22,West,278,2.0,0.0,79,0.00,,,0.00,WeatherTracker,2013-02-03 14:15:00,
2013-02-03 06:20:00,48.4,42.5,30.22,WSW,238,5.0,0.0,80,0.00,,,0.00,WeatherTracker,2013-02-03 14:20:00,
2013-02-03 06:25:00,48.3,42.1,30.22,West,273,2.0,0.0,79,0.00,,,0.00,WeatherTracker,2013-02-03 14:25:00,
2013-02-03 06:30:00,48.3,42.1,30.22,WSW,237,2.0,0.0,79,0.00,,,0.00,WeatherTracker,2013-02-03 14:30:00,
2013-02-03 06:36:00,48.3,42.1,30.22,WSW,256,0.0,0.0,79,0.00,,,0.00,WeatherTracker,2013-02-03 14:36:00,
2013-02-03 06:41:00,48.1,41.9,30.22,WSW,243,2.0,0.0,79,0.00,,,0.00,WeatherTracker,2013-02-03 14:41:00,
2013-02-03 06:46:00,48.0,41.8,30.22,WSW,256,0.0,0.0,79,0.00,,,0.00,WeatherTracker,2013-02-03 14:46:00,
2013-02-03 06:51:00,47.9,41.7,30.22,WSW,252,1.0,0.0,79,0.00,,,0.00,WeatherTracker,2013-02-03 14:51:00,
2013-02-03 06:56:00,47.8,41.6,30.22,NW,306,3.0,0.0,79,0.00,,,0.00,WeatherTracker,2013-02-03 14:56:00,
2013-02-03 07:01:00,47.9,41.4,30.22,WSW,237,4.0,0.0,78,0.00,,,0.00,WeatherTracker,2013-02-03 15:01:00,
2013-02-03 07:06:00,47.9,41.4,30.22,WSW,249,2.0,0.0,78,0.00,,,0.00,WeatherTracker,2013-02-03 15:06:00,
2013-02-03 07:11:00,47.8,41.3,30.21,SW,231,0.0,0.0,78,0.00,,,0.00,WeatherTracker,2013-02-03 15:11:00,
2013-02-03 07:16:00,47.7,41.2,30.22,WSW,256,0.0,0.0,78,0.00,,,0.00,WeatherTracker,2013-02-03 15:16:00,
2013-02-03 07:21:00,47.7,41.2,30.21,West,274,1.0,0.0,78,0.00,,,0.00,WeatherTracker,2013-02-03 15:21:00,
2013-02-03 07:26:00,47.7,41.2,30.21,WSW,249,5.0,0.0,78,0.00,,,0.00,WeatherTracker,2013-02-03 15:26:00,
2013-02-03 07:31:00,47.8,41.3,30.22,WSW,256,2.0,0.0,78,0.00,,,0.00,WeatherTracker,2013-02-03 15:31:00,
2013-02-03 07:36:00,48.1,41.6,30.22,SW,225,2.0,0.0,78,0.00,,,0.00,WeatherTracker,2013-02-03 15:36:00,
2013-02-03 07:41:00,48.3,41.8,30.22,West,278,3.0,0.0,78,0.00,,,0.00,WeatherTracker,2013-02-03 15:41:00,
2013-02-03 07:46:00,48.6,41.7,30.22,WNW,288,6.0,0.0,77,0.00,,,0.00,WeatherTracker,2013-02-03 15:46:00,
2013-02-03 07:51:00,48.8,41.9,30.22,West,279,4.0,0.0,77,0.00,,,0.00,WeatherTracker,2013-02-03 15:51:00,
2013-02-03 07:56:00,49.0,42.1,30.22,West,259,3.0,0.0,77,0.00,,,0.00,WeatherTracker,2013-02-03 15:56:00,
2013-02-03 08:01:00,49.1,41.9,30.22,WSW,252,3.0,0.0,76,0.00,,,0.00,WeatherTracker,2013-02-03 16:01:00,
2013-02-03 08:06:00,49.2,42.0,30.22,NW,306,3.0,0.0,76,0.00,,,0.00,WeatherTracker,2013-02-03 16:06:00,
2013-02-03 08:11:00,49.3,42.1,30.22,West,281,4.0,0.0,76,0.00,,,0.00,WeatherTracker,2013-02-03 16:11:00,
2013-02-03 08:16:00,49.4,42.2,30.23,WNW,283,5.0,0.0,76,0.00,,,0.00,WeatherTracker,2013-02-03 16:16:00,
2013-02-03 08:21:00,49.5,42.3,30.23,WNW,283,5.0,0.0,76,0.00,,,0.00,WeatherTracker,2013-02-03 16:21:00,
2013-02-03 08:26:00,49.9,42.3,30.23,West,271,3.0,0.0,75,0.00,,,0.00,WeatherTracker,2013-02-03 16:26:00,
2013-02-03 08:31:00,50.1,42.5,30.23,West,273,1.0,0.0,75,0.00,,,0.00,WeatherTracker,2013-02-03 16:31:00,
2013-02-03 08:36:00,50.4,42.4,30.23,West,277,3.0,0.0,74,0.00,,,0.00,WeatherTracker,2013-02-03 16:36:00,
2013-02-03 08:42:00,50.5,42.5,30.23,West,264,3.0,0.0,74,0.00,,,0.00,WeatherTracker,2013-02-03 16:42:00,
2013-02-03 08:47:00,50.7,42.7,30.23,NW,304,2.0,0.0,74,0.00,,,0.00,WeatherTracker,2013-02-03 16:47:00,
2013-02-03 08:52:00,51.2,43.6,30.23,NE,56,0.0,0.0,75,0.00,,,0.00,WeatherTracker,2013-02-03 16:52:00,
2013-02-03 08:57:00,51.6,43.2,30.23,SSW,204,0.0,0.0,73,0.00,,,0.00,WeatherTracker,2013-02-03 16:57:00,
2013-02-03 09:02:00,51.6,43.2,30.23,West,265,1.0,0.0,73,0.00,,,0.00,WeatherTracker,2013-02-03 17:02:00,
2013-02-03 09:07:00,51.7,43.3,30.23,WNW,287,0.0,0.0,73,0.00,,,0.00,WeatherTracker,2013-02-03 17:07:00,
2013-02-03 09:12:00,51.8,43.1,30.23,WSW,252,5.0,0.0,72,0.00,,,0.00,WeatherTracker,2013-02-03 17:12:00,
2013-02-03 09:17:00,51.8,42.7,30.23,WNW,287,5.0,0.0,71,0.00,,,0.00,WeatherTracker,2013-02-03 17:17:00,
2013-02-03 09:22:00,51.7,43.0,30.23,WNW,285,1.0,0.0,72,0.00,,,0.00,WeatherTracker,2013-02-03 17:22:00,
2013-02-03 09:27:00,51.8,43.1,30.23,WSW,238,0.0,0.0,72,0.00,,,0.00,WeatherTracker,2013-02-03 17:27:00,
2013-02-03 09:32:00,52.0,43.3,30.23,WNW,295,5.0,0.0,72,0.00,,,0.00,WeatherTracker,2013-02-03 17:32:00,
2013-02-03 09:37:00,52.1,43.4,30.23,WSW,243,4.0,0.0,72,0.00,,,0.00,WeatherTracker,2013-02-03 17:37:00,
2013-02-03 09:42:00,52.3,43.2,30.23,WSW,239,6.0,0.0,71,0.00,,,0.00,WeatherTracker,2013-02-03 17:42:00,
2013-02-03 09:47:00,52.2,43.4,30.23,SW,236,4.0,0.0,72,0.00,,,0.00,WeatherTracker,2013-02-03 17:47:00,
2013-02-03 09:52:00,52.6,43.5,30.23,WNW,301,4.0,0.0,71,0.00,,,0.00,WeatherTracker,2013-02-03 17:52:00,
2013-02-03 09:57:00,52.7,43.6,30.23,West,276,3.0,0.0,71,0.00,,,0.00,WeatherTracker,2013-02-03 17:57:00,
2013-02-03 10:02:00,52.8,44.0,30.23,WNW,297,2.0,0.0,72,0.00,,,0.00,WeatherTracker,2013-02-03 18:02:00,
2013-02-03 10:07:00,53.2,44.0,30.23,WNW,297,7.0,0.0,71,0.00,,,0.00,WeatherTracker,2013-02-03 18:07:00,
2013-02-03 10:12:00,52.9,43.8,30.23,West,267,6.0,0.0,71,0.00,,,0.00,WeatherTracker,2013-02-03 18:12:00,
2013-02-03 10:17:00,52.8,43.3,30.23,SW,235,8.0,0.0,70,0.00,,,0.00,WeatherTracker,2013-02-03 18:17:00,
2013-02-03 10:22:00,52.7,43.2,30.23,WSW,250,5.0,0.0,70,0.00,,,0.00,WeatherTracker,2013-02-03 18:22:00,
2013-02-03 10:27:00,52.7,43.2,30.23,WNW,291,2.0,0.0,70,0.00,,,0.00,WeatherTracker,2013-02-03 18:27:00,
2013-02-03 10:32:00,53.2,43.7,30.24,SW,224,3.0,0.0,70,0.00,,,0.00,WeatherTracker,2013-02-03 18:32:00,
2013-02-03 10:37:00,53.3,43.4,30.24,West,269,3.0,0.0,69,0.00,,,0.00,WeatherTracker,2013-02-03 18:37:00,
2013-02-03 10:43:00,52.9,43.0,30.23,NW,308,5.0,0.0,69,0.00,,,0.00,WeatherTracker,2013-02-03 18:43:00,
2013-02-03 10:48:00,52.7,43.2,30.24,WNW,295,5.0,0.0,70,0.00,,,0.00,WeatherTracker,2013-02-03 18:48:00,
2013-02-03 10:53:00,53.0,43.9,30.23,NW,326,1.0,0.0,71,0.00,,,0.00,WeatherTracker,2013-02-03 18:53:00,
2013-02-03 10:58:00,53.5,43.6,30.23,WSW,248,0.0,0.0,69,0.00,,,0.00,WeatherTracker,2013-02-03 18:58:00,
2013-02-03 11:03:00,53.9,43.6,30.23,NW,315,2.0,0.0,68,0.00,,,0.00,WeatherTracker,2013-02-03 19:03:00,
2013-02-03 11:08:00,53.9,43.6,30.22,NW,314,2.0,0.0,68,0.00,,,0.00,WeatherTracker,2013-02-03 19:08:00,
2013-02-03 11:13:00,53.9,43.2,30.22,ENE,63,3.0,0.0,67,0.00,,,0.00,WeatherTracker,2013-02-03 19:13:00,
2013-02-03 11:18:00,53.8,43.5,30.22,NNE,19,2.0,0.0,68,0.00,,,0.00,WeatherTracker,2013-02-03 19:18:00,
2013-02-03 11:23:00,54.1,43.4,30.21,North,11,1.0,0.0,67,0.00,,,0.00,WeatherTracker,2013-02-03 19:23:00,
2013-02-03 11:28:00,54.4,43.7,30.21,East,98,2.0,0.0,67,0.00,,,0.00,WeatherTracker,2013-02-03 19:28:00,
2013-02-03 11:33:00,55.1,44.3,30.20,ENE,68,1.0,0.0,67,0.00,,,0.00,WeatherTracker,2013-02-03 19:33:00,
2013-02-03 11:38:00,55.9,44.7,30.20,NE,50,7.0,0.0,66,0.00,,,0.00,WeatherTracker,2013-02-03 19:38:00,
2013-02-03 11:43:00,55.3,43.7,30.20,East,89,4.0,0.0,65,0.00,,,0.00,WeatherTracker,2013-02-03 19:43:00,
2013-02-03 11:48:00,55.1,43.9,30.20,ESE,104,3.0,0.0,66,0.00,,,0.00,WeatherTracker,2013-02-03 19:48:00,
2013-02-03 11:53:00,55.1,44.3,30.19,WNW,283,0.0,0.0,67,0.00,,,0.00,WeatherTracker,2013-02-03 19:53:00,
2013-02-03 11:58:00,55.4,44.2,30.19,South,174,2.0,0.0,66,0.00,,,0.00,WeatherTracker,2013-02-03 19:58:00,
2013-02-03 12:03:00,55.6,44.4,30.19,SSE,153,1.0,0.0,66,0.00,,,0.00,WeatherTracker,2013-02-03 20:03:00,
2013-02-03 12:08:00,56.1,44.5,30.19,ENE,72,4.0,0.0,65,0.00,,,0.00,WeatherTracker,2013-02-03 20:08:00,
2013-02-03 12:13:00,55.5,44.3,30.19,NNE,26,5.0,0.0,66,0.00,,,0.00,WeatherTracker,2013-02-03 20:13:00,
2013-02-03 12:18:00,55.4,44.2,30.18,ENE,68,4.0,0.0,66,0.00,,,0.00,WeatherTracker,2013-02-03 20:18:00,
2013-02-03 12:23:00,55.0,44.2,30.18,East,84,3.0,0.0,67,0.00,,,0.00,WeatherTracker,2013-02-03 20:23:00,
2013-02-03 12:28:00,55.3,44.9,30.18,NW,307,2.0,0.0,68,0.00,,,0.00,WeatherTracker,2013-02-03 20:28:00,
2013-02-03 12:33:00,55.8,44.2,30.18,WNW,299,8.0,0.0,65,0.00,,,0.00,WeatherTracker,2013-02-03 20:33:00,
2013-02-03 12:38:00,55.4,44.2,30.18,NW,321,3.0,0.0,66,0.00,,,0.00,WeatherTracker,2013-02-03 20:38:00,
2013-02-03 12:44:00,55.0,44.2,30.18,WSW,255,4.0,0.0,67,0.00,,,0.00,WeatherTracker,2013-02-03 20:44:00,
2013-02-03 12:49:00,55.0,44.6,30.18,NE,54,1.0,0.0,68,0.00,,,0.00,WeatherTracker,2013-02-03 20:49:00,
2013-02-03 12:54:00,55.4,44.6,30.18,WSW,243,7.0,0.0,67,0.00,,,0.00,WeatherTracker,2013-02-03 20:54:00,
2013-02-03 12:59:00,55.6,44.0,30.18,WSW,246,4.0,0.0,65,0.00,,,0.00,WeatherTracker,2013-02-03 20:59:00,
2013-02-03 13:04:00,55.9,44.3,30.18,WNW,284,10.0,0.0,65,0.00,,,0.00,WeatherTracker,2013-02-03 21:04:00,
2013-02-03 13:09:00,55.1,44.3,30.18,WNW,293,5.0,0.0,67,0.00,,,0.00,WeatherTracker,2013-02-03 21:09:00,
2013-02-03 13:14:00,54.9,44.5,30.18,West,266,3.0,0.0,68,0.00,,,0.00,WeatherTracker,2013-02-03 21:14:00,
2013-02-03 13:19:00,54.8,44.4,30.18,NW,321,4.0,0.0,68,0.00,,,0.00,WeatherTracker,2013-02-03 21:19:00,
2013-02-03 13:24:00,54.6,44.6,30.18,WSW,255,6.0,0.0,69,0.00,,,0.00,WeatherTracker,2013-02-03 21:24:00,
2013-02-03 13:29:00,53.9,44.3,30.18,WSW,246,8.0,0.0,70,0.00,,,0.00,WeatherTracker,2013-02-03 21:29:00,
2013-02-03 13:34:00,54.0,44.8,30.17,WSW,252,8.0,0.0,71,0.00,,,0.00,WeatherTracker,2013-02-03 21:34:00,
2013-02-03 13:39:00,53.9,44.3,30.17,West,272,9.0,0.0,70,0.00,,,0.00,WeatherTracker,2013-02-03 21:39:00,
2013-02-03 13:44:00,53.8,44.6,30.17,WSW,246,6.0,0.0,71,0.00,,,0.00,WeatherTracker,2013-02-03 21:44:00,
2013-02-03 13:49:00,53.9,44.7,30.17,SW,225,7.0,0.0,71,0.00,,,0.00,WeatherTracker,2013-02-03 21:49:00,
2013-02-03 13:54:00,54.1,44.9,30.16,West,277,6.0,0.0,71,0.00,,,0.00,WeatherTracker,2013-02-03 21:54:00,
2013-02-03 13:59:00,54.2,45.0,30.16,SW,236,3.0,0.0,71,0.00,,,0.00,WeatherTracker,2013-02-03 21:59:00,
2013-02-03 14:04:00,54.7,44.7,30.16,West,276,7.0,0.0,69,0.00,,,0.00,WeatherTracker,2013-02-03 22:04:00,
2013-02-03 14:09:00,54.3,44.3,30.16,SSW,205,4.0,0.0,69,0.00,,,0.00,WeatherTracker,2013-02-03 22:09:00,
2013-02-03 14:14:00,54.1,44.5,30.16,SW,229,4.0,0.0,70,0.00,,,0.00,WeatherTracker,2013-02-03 22:14:00,
2013-02-03 14:19:00,54.7,44.7,30.16,WSW,240,2.0,0.0,69,0.00,,,0.00,WeatherTracker,2013-02-03 22:19:00,
2013-02-03 14:24:00,55.2,45.2,30.15,WNW,290,9.0,0.0,69,0.00,,,0.00,WeatherTracker,2013-02-03 22:24:00,
2013-02-03 14:30:00,55.0,45.4,30.15,WNW,288,4.0,0.0,70,0.00,,,0.00,WeatherTracker,2013-02-03 22:30:00,
2013-02-03 14:35:00,55.1,45.9,30.15,NW,304,7.0,0.0,71,0.00,,,0.00,WeatherTracker,2013-02-03 22:35:00,
2013-02-03 14:40:00,55.5,46.3,30.15,WNW,288,5.0,0.0,71,0.00,,,0.00,WeatherTracker,2013-02-03 22:40:00,
2013-02-03 14:45:00,55.3,46.4,30.15,West,263,6.0,0.0,72,0.00,,,0.00,WeatherTracker,2013-02-03 22:45:00,
2013-02-03 14:50:00,55.4,46.2,30.14,WSW,248,4.0,0.0,71,0.00,,,0.00,WeatherTracker,2013-02-03 22:50:00,
2013-02-03 14:55:00,55.5,46.3,30.14,WSW,258,4.0,0.0,71,0.00,,,0.00,WeatherTracker,2013-02-03 22:55:00,
2013-02-03 15:00:00,55.3,46.4,30.14,SW,222,2.0,0.0,72,0.00,,,0.00,WeatherTracker,2013-02-03 23:00:00,
2013-02-03 15:05:00,55.4,46.5,30.14,WSW,252,6.0,0.0,72,0.00,,,0.00,WeatherTracker,2013-02-03 23:05:00,
2013-02-03 15:10:00,55.2,46.3,30.14,SW,231,7.0,0.0,72,0.00,,,0.00,WeatherTracker,2013-02-03 23:10:00,
2013-02-03 15:15:00,55.4,46.5,30.14,WNW,288,4.0,0.0,72,0.00,,,0.00,WeatherTracker,2013-02-03 23:15:00,
2013-02-03 15:20:00,55.4,46.5,30.14,West,274,8.0,0.0,72,0.00,,,0.00,WeatherTracker,2013-02-03 23:20:00,
2013-02-03 15:25:00,55.2,46.3,30.13,WSW,250,7.0,0.0,72,0.00,,,0.00,WeatherTracker,2013-02-03 23:25:00,
2013-02-03 15:30:00,55.1,46.6,30.14,SW,235,9.0,0.0,73,0.00,,,0.00,WeatherTracker,2013-02-03 23:30:00,
2013-02-03 15:35:00,54.7,46.2,30.14,WSW,253,5.0,0.0,73,0.00,,,0.00,WeatherTracker,2013-02-03 23:35:00,
2013-02-03 15:40:00,54.6,46.1,30.14,WSW,240,6.0,0.0,73,0.00,,,0.00,WeatherTracker,2013-02-03 23:40:00,
2013-02-03 15:45:00,54.6,46.5,30.14,WSW,243,6.0,0.0,74,0.00,,,0.00,WeatherTracker,2013-02-03 23:45:00,
2013-02-03 15:50:00,54.8,46.3,30.14,WNW,299,5.0,0.0,73,0.00,,,0.00,WeatherTracker,2013-02-03 23:50:00,
2013-02-03 15:55:00,55.1,46.6,30.13,WSW,255,5.0,0.0,73,0.00,,,0.00,WeatherTracker,2013-02-03 23:55:00,
2013-02-03 16:00:00,55.0,46.5,30.13,West,269,7.0,0.0,73,0.00,,,0.00,WeatherTracker,2013-02-04 00:00:00,
2013-02-03 16:05:00,54.8,46.7,30.13,WSW,243,10.0,0.0,74,0.00,,,0.00,WeatherTracker,2013-02-04 00:05:00,
2013-02-03 16:10:00,55.0,46.9,30.13,WSW,238,8.0,0.0,74,0.00,,,0.00,WeatherTracker,2013-02-04 00:10:00,
2013-02-03 16:15:00,54.5,46.4,30.13,WNW,300,2.0,0.0,74,0.00,,,0.00,WeatherTracker,2013-02-04 00:15:00,
2013-02-03 16:21:00,54.6,46.8,30.13,WSW,250,4.0,0.0,75,0.00,,,0.00,WeatherTracker,2013-02-04 00:21:00,
2013-02-03 16:26:00,54.6,46.8,30.13,WSW,250,3.0,0.0,75,0.00,,,0.00,WeatherTracker,2013-02-04 00:26:00,
2013-02-03 16:31:00,54.6,47.2,30.13,SW,222,1.0,0.0,76,0.00,,,0.00,WeatherTracker,2013-02-04 00:31:00,
2013-02-03 16:36:00,54.6,47.2,30.13,WSW,255,3.0,0.0,76,0.00,,,0.00,WeatherTracker,2013-02-04 00:36:00,
2013-02-03 16:41:00,54.6,47.2,30.13,West,277,6.0,0.0,76,0.00,,,0.00,WeatherTracker,2013-02-04 00:41:00,
2013-02-03 16:46:00,54.5,47.1,30.13,WNW,297,4.0,0.0,76,0.00,,,0.00,WeatherTracker,2013-02-04 00:46:00,
2013-02-03 16:51:00,54.4,47.3,30.13,NW,323,3.0,0.0,77,0.00,,,0.00,WeatherTracker,2013-02-04 00:51:00,
2013-02-03 16:56:00,54.4,47.3,30.13,SW,225,6.0,0.0,77,0.00,,,0.00,WeatherTracker,2013-02-04 00:56:00,
2013-02-03 17:01:00,54.3,47.2,30.13,WSW,246,4.0,0.0,77,0.00,,,0.00,WeatherTracker,2013-02-04 01:01:00,
2013-02-03 17:06:00,53.9,46.9,30.13,WNW,283,5.0,0.0,77,0.00,,,0.00,WeatherTracker,2013-02-04 01:06:00,
2013-02-03 17:11:00,53.6,46.9,30.13,WNW,284,2.0,0.0,78,0.00,,,0.00,WeatherTracker,2013-02-04 01:11:00,
2013-02-03 17:16:00,53.4,47.1,30.13,WSW,252,3.0,0.0,79,0.00,,,0.00,WeatherTracker,2013-02-04 01:16:00,
2013-02-03 17:21:00,53.2,46.9,30.13,WSW,250,7.0,0.0,79,0.00,,,0.00,WeatherTracker,2013-02-04 01:21:00,
2013-02-03 17:26:00,52.9,46.9,30.13,SW,229,6.0,0.0,80,0.00,,,0.00,WeatherTracker,2013-02-04 01:26:00,
2013-02-03 17:31:00,52.6,46.9,30.13,West,269,4.0,0.0,81,0.00,,,0.00,WeatherTracker,2013-02-04 01:31:00,
2013-02-03 17:36:00,52.4,47.1,30.13,WNW,295,2.0,0.0,82,0.00,,,0.00,WeatherTracker,2013-02-04 01:36:00,
2013-02-03 17:41:00,52.2,46.9,30.13,SSW,195,4.0,0.0,82,0.00,,,0.00,WeatherTracker,2013-02-04 01:41:00,
2013-02-03 17:46:00,52.1,46.8,30.14,WSW,249,5.0,0.0,82,0.00,,,0.00,WeatherTracker,2013-02-04 01:46:00,
2013-02-03 17:51:00,52.0,47.0,30.13,WSW,244,4.0,0.0,83,0.00,,,0.00,WeatherTracker,2013-02-04 01:51:00,
2013-02-03 17:56:00,51.9,46.9,30.13,West,264,1.0,0.0,83,0.00,,,0.00,WeatherTracker,2013-02-04 01:56:00,
2013-02-03 18:01:00,51.8,46.8,30.13,WSW,248,2.0,0.0,83,0.00,,,0.00,WeatherTracker,2013-02-04 02:01:00,
2013-02-03 18:06:00,51.8,46.8,30.13,WSW,246,3.0,0.0,83,0.00,,,0.00,WeatherTracker,2013-02-04 02:06:00,
2013-02-03 18:11:00,51.7,46.7,30.13,SW,218,4.0,0.0,83,0.00,,,0.00,WeatherTracker,2013-02-04 02:11:00,
2013-02-03 18:16:00,51.6,46.6,30.13,West,274,3.0,0.0,83,0.00,,,0.00,WeatherTracker,2013-02-04 02:16:00,
2013-02-03 18:21:00,51.5,46.5,30.13,NW,305,3.0,0.0,83,0.00,,,0.00,WeatherTracker,2013-02-04 02:21:00,
2013-02-03 18:27:00,51.4,46.7,30.13,West,272,1.0,0.0,84,0.00,,,0.00,WeatherTracker,2013-02-04 02:27:00,
2013-02-03 18:31:00,51.3,46.6,30.14,West,260,2.0,0.0,84,0.00,,,0.00,WeatherTracker,2013-02-04 02:31:00,
2013-02-03 18:37:00,51.2,46.5,30.14,WNW,288,5.0,0.0,84,0.00,,,0.00,WeatherTracker,2013-02-04 02:37:00,
2013-02-03 18:42:00,51.2,46.5,30.14,West,270,6.0,0.0,84,0.00,,,0.00,WeatherTracker,2013-02-04 02:42:00,
2013-02-03 18:47:00,51.1,46.4,30.14,WNW,283,2.0,0.0,84,0.00,,,0.00,WeatherTracker,2013-02-04 02:47:00,
2013-02-03 18:52:00,51.0,46.7,30.14,WNW,287,5.0,0.0,85,0.00,,,0.00,WeatherTracker,2013-02-04 02:52:00,
2013-02-03 18:57:00,50.9,46.6,30.14,WNW,293,4.0,0.0,85,0.00,,,0.00,WeatherTracker,2013-02-04 02:57:00,
2013-02-03 19:02:00,50.7,46.4,30.14,SW,224,3.0,0.0,85,0.00,,,0.00,WeatherTracker,2013-02-04 03:02:00,
2013-02-03 19:07:00,50.6,46.3,30.14,WNW,290,3.0,0.0,85,0.00,,,0.00,WeatherTracker,2013-02-04 03:07:00,
2013-02-03 19:12:00,50.5,46.2,30.14,WSW,240,0.0,0.0,85,0.00,,,0.00,WeatherTracker,2013-02-04 03:12:00,
2013-02-03 19:17:00,50.4,46.1,30.14,WSW,249,0.0,0.0,85,0.00,,,0.00,WeatherTracker,2013-02-04 03:17:00,
2013-02-03 19:22:00,50.4,46.1,30.14,ENE,77,1.0,0.0,85,0.00,,,0.00,WeatherTracker,2013-02-04 03:22:00,
2013-02-03 19:27:00,50.4,46.1,30.14,WNW,285,1.0,0.0,85,0.00,,,0.00,WeatherTracker,2013-02-04 03:27:00,
2013-02-03 19:32:00,50.3,46.0,30.14,SE,132,0.0,0.0,85,0.00,,,0.00,WeatherTracker,2013-02-04 03:32:00,
2013-02-03 19:37:00,50.2,45.9,30.14,SSW,201,1.0,0.0,85,0.00,,,0.00,WeatherTracker,2013-02-04 03:37:00,
2013-02-03 19:42:00,50.1,46.1,30.14,WSW,244,1.0,0.0,86,0.00,,,0.00,WeatherTracker,2013-02-04 03:42:00,
2013-02-03 19:47:00,50.1,46.1,30.14,SE,129,0.0,0.0,86,0.00,,,0.00,WeatherTracker,2013-02-04 03:47:00,
2013-02-03 19:52:00,50.1,46.1,30.14,SSW,210,2.0,0.0,86,0.00,,,0.00,WeatherTracker,2013-02-04 03:52:00,
2013-02-03 19:57:00,50.1,45.8,30.14,SW,217,1.0,0.0,85,0.00,,,0.00,WeatherTracker,2013-02-04 03:57:00,
2013-02-03 20:02:00,50.1,45.8,30.14,SSE,149,0.0,0.0,85,0.00,,,0.00,WeatherTracker,2013-02-04 04:02:00,
2013-02-03 20:07:00,50.3,46.0,30.14,North,359,2.0,0.0,85,0.00,,,0.00,WeatherTracker,2013-02-04 04:07:00,
2013-02-03 20:12:00,50.4,45.7,30.15,NNW,327,0.0,0.0,84,0.00,,,0.00,WeatherTracker,2013-02-04 04:12:00,
2013-02-03 20:17:00,50.4,45.7,30.14,WNW,292,4.0,0.0,84,0.00,,,0.00,WeatherTracker,2013-02-04 04:17:00,
2013-02-03 20:22:00,50.3,45.7,30.15,WNW,288,2.0,0.0,84,0.00,,,0.00,WeatherTracker,2013-02-04 04:22:00,
2013-02-03 20:27:00,50.1,45.8,30.15,WNW,286,1.0,0.0,85,0.00,,,0.00,WeatherTracker,2013-02-04 04:27:00,
2013-02-03 20:32:00,50.0,45.7,30.15,West,271,0.0,0.0,85,0.00,,,0.00,WeatherTracker,2013-02-04 04:32:00,
2013-02-03 20:37:00,50.0,46.0,30.14,WSW,248,1.0,0.0,86,0.00,,,0.00,WeatherTracker,2013-02-04 04:37:00,
2013-02-03 20:43:00,50.0,46.0,30.14,West,271,0.0,0.0,86,0.00,,,0.00,WeatherTracker,2013-02-04 04:43:00,
2013-02-03 20:48:00,49.7,45.4,30.14,West,271,0.0,0.0,85,0.00,,,0.00,WeatherTracker,2013-02-04 04:48:00,
2013-02-03 20:53:00,49.8,45.8,30.14,East,91,1.0,0.0,86,0.00,,,0.00,WeatherTracker,2013-02-04 04:53:00,
2013-02-03 20:58:00,49.8,45.5,30.14,North,1,0.0,0.0,85,0.00,,,0.00,WeatherTracker,2013-02-04 04:58:00,
2013-02-03 21:00:00,49.7,45.4,30.14,WNW,288,1.0,0.0,85,0.00,,,0.00,WeatherTracker,2013-02-04 05:00:00,
2013-02-03 21:01:00,49.7,45.7,30.14,WSW,258,1.0,0.0,86,0.00,,,0.00,WeatherTracker,2013-02-04 05:01:00,
2013-02-03 21:06:00,49.6,45.6,30.14,WSW,243,0.0,0.0,86,0.00,,,0.00,WeatherTracker,2013-02-04 05:06:00,
2013-02-03 21:11:00,49.5,45.5,30.15,West,278,1.0,0.0,86,0.00,,,0.00,WeatherTracker,2013-02-04 05:11:00,
2013-02-03 21:16:00,49.4,45.4,30.15,West,259,0.0,0.0,86,0.00,,,0.00,WeatherTracker,2013-02-04 05:16:00,
2013-02-03 21:21:00,49.3,45.6,30.14,West,274,0.0,0.0,87,0.00,,,0.00,WeatherTracker,2013-02-04 05:21:00,
2013-02-03 21:26:00,49.2,45.5,30.14,WSW,254,1.0,0.0,87,0.00,,,0.00,WeatherTracker,2013-02-04 05:26:00,
2013-02-03 21:31:00,49.1,45.4,30.15,WSW,256,0.0,0.0,87,0.00,,,0.00,WeatherTracker,2013-02-04 05:31:00,
2013-02-03 21:36:00,48.9,45.2,30.14,WSW,248,0.0,0.0,87,0.00,,,0.00,WeatherTracker,2013-02-04 05:36:00,
2013-02-03 21:41:00,48.9,45.5,30.15,WSW,248,0.0,0.0,88,0.00,,,0.00,WeatherTracker,2013-02-04 05:41:00,
2013-02-03 21:46:00,48.9,45.5,30.14,WSW,248,0.0,0.0,88,0.00,,,0.00,WeatherTracker,2013-02-04 05:46:00,
2013-02-03 21:51:00,48.7,45.3,30.14,WSW,248,0.0,0.0,88,0.00,,,0.00,WeatherTracker,2013-02-04 05:51:00,
2013-02-03 21:56:00,48.5,45.1,30.14,WSW,248,0.0,0.0,88,0.00,,,0.00,WeatherTracker,2013-02-04 05:56:00,
2013-02-03 22:01:00,48.5,45.1,30.14,WSW,248,0.0,0.0,88,0.00,,,0.00,WeatherTracker,2013-02-04 06:01:00,
2013-02-03 22:06:00,48.4,45.3,30.14,WSW,248,0.0,0.0,89,0.00,,,0.00,WeatherTracker,2013-02-04 06:06:00,
2013-02-03 22:11:00,48.4,45.3,30.14,WSW,248,0.0,0.0,89,0.00,,,0.00,WeatherTracker,2013-02-04 06:11:00,
2013-02-03 22:16:00,48.4,45.3,30.14,WSW,248,0.0,0.0,89,0.00,,,0.00,WeatherTracker,2013-02-04 06:16:00,
2013-02-03 22:22:00,48.4,45.3,30.15,WSW,248,1.0,0.0,89,0.00,,,0.00,WeatherTracker,2013-02-04 06:22:00,
2013-02-03 22:27:00,48.5,45.4,30.15,West,271,0.0,0.0,89,0.00,,,0.00,WeatherTracker,2013-02-04 06:27:00,
2013-02-03 22:32:00,48.5,45.4,30.15,WSW,255,2.0,0.0,89,0.00,,,0.00,WeatherTracker,2013-02-04 06:32:00,
2013-02-03 22:37:00,48.5,45.4,30.15,WSW,240,2.0,0.0,89,0.00,,,0.00,WeatherTracker,2013-02-04 06:37:00,
2013-02-03 22:42:00,48.5,45.4,30.15,WSW,239,3.0,0.0,89,0.00,,,0.00,WeatherTracker,2013-02-04 06:42:00,
2013-02-03 22:47:00,48.5,45.7,30.15,WSW,257,1.0,0.0,90,0.00,,,0.00,WeatherTracker,2013-02-04 06:47:00,
2013-02-03 22:52:00,48.5,45.7,30.15,SW,226,0.0,0.0,90,0.00,,,0.00,WeatherTracker,2013-02-04 06:52:00,
2013-02-03 22:57:00,48.4,45.6,30.15,SW,222,0.0,0.0,90,0.00,,,0.00,WeatherTracker,2013-02-04 06:57:00,
2013-02-03 23:02:00,48.4,45.6,30.15,WSW,249,1.0,0.0,90,0.00,,,0.00,WeatherTracker,2013-02-04 07:02:00,
2013-02-03 23:07:00,48.4,45.6,30.15,SW,236,0.0,0.0,90,0.00,,,0.00,WeatherTracker,2013-02-04 07:07:00,
2013-02-03 23:12:00,48.3,45.5,30.15,SSW,211,0.0,0.0,90,0.00,,,0.00,WeatherTracker,2013-02-04 07:12:00,
2013-02-03 23:17:00,48.2,45.4,30.15,SE,146,0.0,0.0,90,0.00,,,0.00,WeatherTracker,2013-02-04 07:17:00,
2013-02-03 23:22:00,48.1,45.6,30.15,SE,146,0.0,0.0,91,0.00,,,0.00,WeatherTracker,2013-02-04 07:22:00,
2013-02-03 23:27:00,48.0,45.2,30.15,SE,146,0.0,0.0,90,0.00,,,0.00,WeatherTracker,2013-02-04 07:27:00,
2013-02-03 23:32:00,47.8,45.3,30.15,SE,146,0.0,0.0,91,0.00,,,0.00,WeatherTracker,2013-02-04 07:32:00,
2013-02-03 23:37:00,47.7,45.2,30.15,SE,146,0.0,0.0,91,0.00,,,0.00,WeatherTracker,2013-02-04 07:37:00,
2013-02-03 23:42:00,47.8,45.3,30.15,SSE,165,0.0,0.0,91,0.00,,,0.00,WeatherTracker,2013-02-04 07:42:00,
2013-02-03 23:47:00,47.8,45.3,30.15,SSE,165,0.0,0.0,91,0.00,,,0.00,WeatherTracker,2013-02-04 07:47:00,
2013-02-03 23:52:00,47.8,45.3,30.14,SSE,165,0.0,0.0,91,0.00,,,0.00,WeatherTracker,2013-02-04 07:52:00,
2013-02-03 23:57:00,47.6,45.1,30.14,SSE,165,0.0,0.0,91,0.00,,,0.00,WeatherTracker,2013-02-04 07:57:00,